Time,TemperatureF,DewpointF,PressureIn,WindDirection,WindDirectionDegrees,WindSpeedMPH,WindSpeedGustMPH,Humidity,HourlyPrecipIn,Conditions,Clouds,dailyrainin,SoftwareType,DateUTC
2013-04-15 00:00:00,45.7,37.6,30.16,WSW,240,0.0,1.0,73,0.00,,,0.00,meteohub,2013-04-15 04:00:00,
2013-04-15 00:05:00,45.7,37.2,30.17,WSW,240,0.0,1.0,72,0.00,,,0.00,meteohub,2013-04-15 04:05:00,
2013-04-15 00:11:00,45.7,37.9,30.16,WSW,240,0.0,1.0,74,0.00,,,0.00,meteohub,2013-04-15 04:11:00,
2013-04-15 00:15:00,45.7,37.6,30.16,WSW,240,0.0,1.0,73,0.00,,,0.00,meteohub,2013-04-15 04:15:00,
2013-04-15 00:20:00,45.3,37.2,30.16,WSW,240,0.0,1.0,73,0.00,,,0.00,meteohub,2013-04-15 04:20:00,
2013-04-15 00:26:00,45.3,37.6,30.17,WSW,240,0.0,1.0,74,0.00,,,0.00,meteohub,2013-04-15 04:26:00,
2013-04-15 00:31:00,45.5,37.4,30.17,WSW,240,0.0,1.0,73,0.00,,,0.00,meteohub,2013-04-15 04:31:00,
2013-04-15 00:36:00,45.7,37.6,30.17,WSW,240,0.0,1.0,73,0.00,,,0.00,meteohub,2013-04-15 04:36:00,
2013-04-15 00:41:00,45.7,36.1,30.17,WSW,240,0.0,1.0,69,0.00,,,0.00,meteohub,2013-04-15 04:41:00,
2013-04-15 00:46:00,45.9,36.3,30.17,WSW,240,0.0,1.0,69,0.00,,,0.00,meteohub,2013-04-15 04:46:00,
2013-04-15 00:51:00,45.9,37.0,30.17,WSW,240,0.0,1.0,71,0.00,,,0.00,meteohub,2013-04-15 04:51:00,
2013-04-15 00:56:00,45.9,37.8,30.17,WSW,240,0.0,1.0,73,0.00,,,0.00,meteohub,2013-04-15 04:56:00,
2013-04-15 01:01:00,45.7,37.6,30.17,WSW,240,0.0,1.0,73,0.00,,,0.00,meteohub,2013-04-15 05:01:00,
2013-04-15 01:06:00,45.7,37.6,30.18,WSW,240,0.0,1.0,73,0.00,,,0.00,meteohub,2013-04-15 05:06:00,
2013-04-15 01:11:00,45.7,37.9,30.17,WSW,240,0.0,0.0,74,0.00,,,0.00,meteohub,2013-04-15 05:11:00,
2013-04-15 01:16:00,45.7,38.5,30.18,WSW,240,0.0,1.0,76,0.00,,,0.00,meteohub,2013-04-15 05:16:00,
2013-04-15 01:21:00,45.7,38.8,30.18,WSW,240,0.0,1.0,77,0.00,,,0.00,meteohub,2013-04-15 05:21:00,
2013-04-15 01:26:00,45.7,38.3,30.19,WSW,240,0.0,1.0,75,0.00,,,0.00,meteohub,2013-04-15 05:26:00,
2013-04-15 01:31:00,45.5,37.4,30.19,WSW,240,0.0,1.0,73,0.00,,,0.00,meteohub,2013-04-15 05:31:00,
2013-04-15 01:36:00,45.5,38.1,30.19,North,355,2.0,2.0,75,0.00,,,0.00,meteohub,2013-04-15 05:36:00,
2013-04-15 01:42:00,45.7,39.2,30.20,North,351,0.0,2.0,78,0.00,,,0.00,meteohub,2013-04-15 05:42:00,
2013-04-15 01:47:00,45.7,39.6,30.21,North,351,1.0,2.0,79,0.00,,,0.00,meteohub,2013-04-15 05:47:00,
2013-04-15 01:52:00,45.7,39.2,30.21,North,351,0.0,2.0,78,0.00,,,0.00,meteohub,2013-04-15 05:52:00,
2013-04-15 01:57:00,45.7,38.8,30.21,NNE,16,2.0,2.0,77,0.00,,,0.00,meteohub,2013-04-15 05:57:00,
2013-04-15 02:02:00,45.9,38.7,30.21,ENE,65,2.0,3.0,76,0.00,,,0.00,meteohub,2013-04-15 06:02:00,
2013-04-15 02:07:00,45.9,38.3,30.21,NE,55,2.0,3.0,75,0.00,,,0.00,meteohub,2013-04-15 06:07:00,
2013-04-15 02:12:00,46.0,38.8,30.20,NE,55,1.0,3.0,76,0.00,,,0.00,meteohub,2013-04-15 06:12:00,
2013-04-15 02:17:00,46.0,39.6,30.21,NE,55,2.0,3.0,78,0.00,,,0.00,meteohub,2013-04-15 06:17:00,
2013-04-15 02:22:00,46.0,37.2,30.21,ENE,63,2.0,4.0,71,0.00,,,0.00,meteohub,2013-04-15 06:22:00,
2013-04-15 02:27:00,46.4,38.8,30.21,ENE,63,1.0,4.0,75,0.00,,,0.00,meteohub,2013-04-15 06:27:00,
2013-04-15 02:32:00,46.6,37.0,30.21,ENE,65,0.0,4.0,69,0.00,,,0.00,meteohub,2013-04-15 06:32:00,
2013-04-15 02:37:00,46.9,36.9,30.21,ENE,57,3.0,3.0,68,0.00,,,0.00,meteohub,2013-04-15 06:37:00,
2013-04-15 02:42:00,47.5,37.0,30.21,ENE,62,4.0,4.0,67,0.00,,,0.00,meteohub,2013-04-15 06:42:00,
2013-04-15 02:47:00,47.8,37.0,30.22,ENE,64,4.0,4.0,66,0.00,,,0.00,meteohub,2013-04-15 06:47:00,
2013-04-15 02:52:00,48.2,36.7,30.22,ENE,64,3.0,5.0,64,0.00,,,0.00,meteohub,2013-04-15 06:52:00,
2013-04-15 02:57:00,48.4,36.3,30.22,East,93,2.0,7.0,63,0.00,,,0.00,meteohub,2013-04-15 06:57:00,
2013-04-15 03:02:00,48.6,36.1,30.22,East,83,2.0,7.0,62,0.00,,,0.00,meteohub,2013-04-15 07:02:00,
2013-04-15 03:41:00,48.2,33.3,30.23,ENE,74,2.0,7.0,56,0.00,,,0.00,meteohub,2013-04-15 07:41:00,
2013-04-15 03:42:00,48.2,33.3,30.23,ENE,68,4.0,7.0,56,0.00,,,0.00,meteohub,2013-04-15 07:42:00,
2013-04-15 03:47:00,48.0,33.1,30.23,East,86,2.0,7.0,56,0.00,,,0.00,meteohub,2013-04-15 07:47:00,
2013-04-15 03:48:00,48.0,32.5,30.23,ENE,59,2.0,7.0,55,0.00,,,0.00,meteohub,2013-04-15 07:48:00,
2013-04-15 03:49:00,48.0,32.5,30.23,ENE,78,1.0,7.0,55,0.00,,,0.00,meteohub,2013-04-15 07:49:00,
2013-04-15 03:53:00,48.0,32.5,30.23,ENE,76,2.0,7.0,55,0.00,,,0.00,meteohub,2013-04-15 07:53:00,
2013-04-15 03:58:00,48.0,32.2,30.23,East,92,2.0,5.0,54,0.00,,,0.00,meteohub,2013-04-15 07:58:00,
2013-04-15 04:03:00,48.0,32.2,30.23,ENE,63,4.0,5.0,54,0.00,,,0.00,meteohub,2013-04-15 08:03:00,
2013-04-15 04:08:00,47.8,32.5,30.23,ENE,76,2.0,5.0,55,0.00,,,0.00,meteohub,2013-04-15 08:08:00,
2013-04-15 04:13:00,47.8,32.5,30.23,East,90,2.0,7.0,55,0.00,,,0.00,meteohub,2013-04-15 08:13:00,
2013-04-15 04:19:00,47.7,32.4,30.23,East,79,1.0,7.0,55,0.00,,,0.00,meteohub,2013-04-15 08:19:00,
2013-04-15 04:24:00,47.7,31.8,30.23,ENE,76,2.0,7.0,54,0.00,,,0.00,meteohub,2013-04-15 08:24:00,
2013-04-15 04:29:00,47.7,32.4,30.24,ESE,117,3.0,6.0,55,0.00,,,0.00,meteohub,2013-04-15 08:29:00,
2013-04-15 04:34:00,47.7,31.8,30.24,East,84,1.0,4.0,54,0.00,,,0.00,meteohub,2013-04-15 08:34:00,
2013-04-15 04:35:00,47.7,31.8,30.24,East,96,2.0,4.0,54,0.00,,,0.00,meteohub,2013-04-15 08:35:00,
2013-04-15 04:40:00,47.7,31.8,30.24,ENE,74,2.0,4.0,54,0.00,,,0.00,meteohub,2013-04-15 08:40:00,
2013-04-15 04:45:00,47.7,31.8,30.25,ENE,69,4.0,7.0,54,0.00,,,0.00,meteohub,2013-04-15 08:45:00,
2013-04-15 04:50:00,47.7,31.8,30.25,East,100,3.0,7.0,54,0.00,,,0.00,meteohub,2013-04-15 08:50:00,
2013-04-15 04:55:00,47.7,32.4,30.25,ENE,64,2.0,7.0,55,0.00,,,0.00,meteohub,2013-04-15 08:55:00,
2013-04-15 05:01:00,47.7,31.8,30.25,East,99,2.0,5.0,54,0.00,,,0.00,meteohub,2013-04-15 09:01:00,
2013-04-15 05:06:00,47.7,32.4,30.25,ENE,72,2.0,5.0,55,0.00,,,0.00,meteohub,2013-04-15 09:06:00,
2013-04-15 05:11:00,47.7,32.4,30.25,East,100,2.0,5.0,55,0.00,,,0.00,meteohub,2013-04-15 09:11:00,
2013-04-15 05:16:00,47.7,31.8,30.25,ESE,117,2.0,5.0,54,0.00,,,0.00,meteohub,2013-04-15 09:16:00,
2013-04-15 05:21:00,47.7,31.8,30.25,East,92,3.0,7.0,54,0.00,,,0.00,meteohub,2013-04-15 09:21:00,
2013-04-15 05:26:00,47.7,32.4,30.25,NE,55,1.0,7.0,55,0.00,,,0.00,meteohub,2013-04-15 09:26:00,
2013-04-15 05:31:00,47.5,31.6,30.25,ESE,121,1.0,7.0,54,0.00,,,0.00,meteohub,2013-04-15 09:31:00,
2013-04-15 05:36:00,47.5,32.2,30.25,ESE,106,1.0,7.0,55,0.00,,,0.00,meteohub,2013-04-15 09:36:00,
2013-04-15 05:41:00,47.5,32.2,30.25,East,89,1.0,4.0,55,0.00,,,0.00,meteohub,2013-04-15 09:41:00,
2013-04-15 05:46:00,47.5,32.2,30.25,East,84,1.0,4.0,55,0.00,,,0.00,meteohub,2013-04-15 09:46:00,
2013-04-15 05:52:00,47.5,32.2,30.25,East,93,2.0,3.0,55,0.00,,,0.00,meteohub,2013-04-15 09:52:00,
2013-04-15 05:57:00,47.3,32.4,30.25,East,101,2.0,3.0,56,0.00,,,0.00,meteohub,2013-04-15 09:57:00,
2013-04-15 06:02:00,47.3,32.9,30.25,ESE,107,1.0,3.0,57,0.00,,,0.00,meteohub,2013-04-15 10:02:00,
2013-04-15 06:07:00,47.1,32.2,30.25,East,98,2.0,5.0,56,0.00,,,0.00,meteohub,2013-04-15 10:07:00,
2013-04-15 06:12:00,47.1,32.2,30.25,ESE,105,1.0,7.0,56,0.00,,,0.00,meteohub,2013-04-15 10:12:00,
2013-04-15 06:17:00,47.1,32.2,30.25,East,92,2.0,7.0,56,0.00,,,0.00,meteohub,2013-04-15 10:17:00,
2013-04-15 06:22:00,47.1,32.2,30.25,ENE,59,3.0,7.0,56,0.00,,,0.00,meteohub,2013-04-15 10:22:00,
2013-04-15 06:27:00,47.1,32.2,30.26,East,79,1.0,5.0,56,0.00,,,0.00,meteohub,2013-04-15 10:27:00,
2013-04-15 06:32:00,47.1,33.1,30.26,East,98,3.0,5.0,58,0.00,,,0.00,meteohub,2013-04-15 10:32:00,
2013-04-15 06:37:00,46.9,32.9,30.26,East,80,2.0,4.0,58,0.00,,,0.00,meteohub,2013-04-15 10:37:00,
2013-04-15 06:42:00,46.9,32.9,30.27,East,89,5.0,5.0,58,0.00,,,0.00,meteohub,2013-04-15 10:42:00,
2013-04-15 06:47:00,46.9,32.9,30.27,East,94,2.0,5.0,58,0.00,,,0.00,meteohub,2013-04-15 10:47:00,
2013-04-15 06:52:00,46.9,32.9,30.27,East,92,1.0,5.0,58,0.00,,,0.00,meteohub,2013-04-15 10:52:00,
2013-04-15 06:57:00,46.9,32.9,30.28,ENE,70,2.0,5.0,58,0.00,,,0.00,meteohub,2013-04-15 10:57:00,
2013-04-15 07:02:00,46.8,33.3,30.28,East,90,1.0,5.0,59,0.00,,,0.00,meteohub,2013-04-15 11:02:00,
2013-04-15 07:08:00,46.8,33.6,30.28,ENE,66,2.0,5.0,60,0.00,,,0.00,meteohub,2013-04-15 11:08:00,
2013-04-15 07:13:00,46.8,33.3,30.29,ENE,74,2.0,5.0,59,0.00,,,0.00,meteohub,2013-04-15 11:13:00,
2013-04-15 07:18:00,46.8,33.6,30.29,ENE,69,2.0,5.0,60,0.00,,,0.00,meteohub,2013-04-15 11:18:00,
2013-04-15 07:23:00,46.8,33.6,30.29,ENE,62,3.0,7.0,60,0.00,,,0.00,meteohub,2013-04-15 11:23:00,
2013-04-15 07:28:00,46.8,33.6,30.29,ENE,69,1.0,7.0,60,0.00,,,0.00,meteohub,2013-04-15 11:28:00,
2013-04-15 07:33:00,46.8,33.6,30.29,ENE,77,2.0,7.0,60,0.00,,,0.00,meteohub,2013-04-15 11:33:00,
2013-04-15 07:38:00,46.8,33.6,30.30,East,82,1.0,7.0,60,0.00,,,0.00,meteohub,2013-04-15 11:38:00,
2013-04-15 07:43:00,46.8,34.5,30.30,ENE,66,7.0,7.0,62,0.00,,,0.00,meteohub,2013-04-15 11:43:00,
2013-04-15 07:48:00,46.6,34.3,30.31,East,90,1.0,7.0,62,0.00,,,0.00,meteohub,2013-04-15 11:48:00,
2013-04-15 07:53:00,46.6,34.7,30.31,ENE,71,4.0,7.0,63,0.00,,,0.00,meteohub,2013-04-15 11:53:00,
2013-04-15 07:58:00,46.6,34.3,30.31,East,96,2.0,8.0,62,0.00,,,0.00,meteohub,2013-04-15 11:58:00,
2013-04-15 08:03:00,46.4,34.5,30.31,ENE,65,3.0,8.0,63,0.00,,,0.00,meteohub,2013-04-15 12:03:00,
2013-04-15 08:09:00,46.4,35.2,30.31,ESE,111,3.0,8.0,65,0.00,,,0.00,meteohub,2013-04-15 12:09:00,
2013-04-15 08:14:00,46.4,35.2,30.31,ENE,76,2.0,8.0,65,0.00,,,0.00,meteohub,2013-04-15 12:14:00,
2013-04-15 08:19:00,46.6,35.4,30.31,ESE,104,2.0,8.0,65,0.00,,,0.00,meteohub,2013-04-15 12:19:00,
2013-04-15 08:24:00,46.6,35.4,30.31,East,92,3.0,5.0,65,0.00,,,0.00,meteohub,2013-04-15 12:24:00,
2013-04-15 08:29:00,46.6,35.4,30.31,NE,51,5.0,8.0,65,0.00,,,0.00,meteohub,2013-04-15 12:29:00,
2013-04-15 08:34:00,46.4,35.6,30.31,East,91,2.0,8.0,66,0.00,,,0.00,meteohub,2013-04-15 12:34:00,
2013-04-15 08:39:00,46.2,36.0,30.31,ENE,59,4.0,8.0,67,0.00,,,0.00,meteohub,2013-04-15 12:39:00,
2013-04-15 08:44:00,46.2,36.0,30.31,ENE,75,3.0,8.0,67,0.00,,,0.00,meteohub,2013-04-15 12:44:00,
2013-04-15 08:49:00,46.2,36.3,30.31,ENE,63,1.0,8.0,68,0.00,,,0.00,meteohub,2013-04-15 12:49:00,
2013-04-15 08:54:00,46.2,36.7,30.31,ENE,70,5.0,8.0,69,0.00,,,0.00,meteohub,2013-04-15 12:54:00,
2013-04-15 08:59:00,46.2,37.4,30.31,ESE,123,2.0,8.0,71,0.00,,,0.00,meteohub,2013-04-15 12:59:00,
2013-04-15 09:04:00,46.2,37.8,30.31,East,92,1.0,8.0,72,0.00,,,0.00,meteohub,2013-04-15 13:04:00,
2013-04-15 09:09:00,46.0,37.9,30.31,NE,50,3.0,8.0,73,0.00,,,0.00,meteohub,2013-04-15 13:09:00,
2013-04-15 09:14:00,46.2,37.8,30.30,ENE,75,5.0,8.0,72,0.00,,,0.00,meteohub,2013-04-15 13:14:00,
2013-04-15 09:19:00,46.2,37.8,30.30,ENE,63,7.0,8.0,72,0.00,,,0.00,meteohub,2013-04-15 13:19:00,
2013-04-15 09:24:00,46.4,37.6,30.30,ESE,104,3.0,10.0,71,0.00,,,0.00,meteohub,2013-04-15 13:24:00,
2013-04-15 09:29:00,46.6,37.8,30.30,ENE,65,2.0,10.0,71,0.00,,,0.00,meteohub,2013-04-15 13:29:00,
2013-04-15 09:34:00,46.9,38.1,30.30,East,92,3.0,10.0,71,0.00,,,0.00,meteohub,2013-04-15 13:34:00,
2013-04-15 09:39:00,46.9,38.3,30.30,ENE,62,4.0,9.0,72,0.00,,,0.00,meteohub,2013-04-15 13:39:00,
2013-04-15 09:44:00,47.3,37.6,30.30,East,100,1.0,8.0,69,0.00,,,0.00,meteohub,2013-04-15 13:44:00,
2013-04-15 09:50:00,47.7,37.9,30.30,East,92,2.0,8.0,69,0.00,,,0.00,meteohub,2013-04-15 13:50:00,
2013-04-15 09:55:00,47.7,37.9,30.30,ENE,66,4.0,8.0,69,0.00,,,0.00,meteohub,2013-04-15 13:55:00,
2013-04-15 10:00:00,47.7,37.6,30.30,ENE,64,2.0,8.0,68,0.00,,,0.00,meteohub,2013-04-15 14:00:00,
2013-04-15 10:05:00,47.7,37.6,30.30,ENE,67,9.0,9.0,68,0.00,,,0.00,meteohub,2013-04-15 14:05:00,
2013-04-15 10:10:00,47.8,37.8,30.30,ENE,59,3.0,9.0,68,0.00,,,0.00,meteohub,2013-04-15 14:10:00,
2013-04-15 10:15:00,48.0,37.9,30.29,ENE,57,3.0,9.0,68,0.00,,,0.00,meteohub,2013-04-15 14:15:00,
2013-04-15 10:20:00,48.4,37.9,30.30,NE,51,7.0,9.0,67,0.00,,,0.00,meteohub,2013-04-15 14:20:00,
2013-04-15 10:25:00,48.7,37.9,30.30,ESE,113,2.0,10.0,66,0.00,,,0.00,meteohub,2013-04-15 14:25:00,
2013-04-15 10:30:00,48.7,37.9,30.30,East,95,3.0,10.0,66,0.00,,,0.00,meteohub,2013-04-15 14:30:00,
2013-04-15 10:35:00,48.9,38.1,30.30,ESE,119,2.0,10.0,66,0.00,,,0.00,meteohub,2013-04-15 14:35:00,
2013-04-15 10:40:00,49.3,37.9,30.30,ENE,65,3.0,11.0,65,0.00,,,0.00,meteohub,2013-04-15 14:40:00,
2013-04-15 10:45:00,49.5,38.1,30.30,ENE,71,4.0,11.0,65,0.00,,,0.00,meteohub,2013-04-15 14:45:00,
2013-04-15 10:50:00,49.6,38.3,30.30,NE,52,5.0,11.0,65,0.00,,,0.00,meteohub,2013-04-15 14:50:00,
2013-04-15 10:55:00,49.8,38.1,30.30,ENE,58,3.0,10.0,64,0.00,,,0.00,meteohub,2013-04-15 14:55:00,
2013-04-15 11:00:00,49.6,38.3,30.30,ENE,69,4.0,10.0,65,0.00,,,0.00,meteohub,2013-04-15 15:00:00,
2013-04-15 11:05:00,49.6,38.3,30.30,ENE,61,3.0,10.0,65,0.00,,,0.00,meteohub,2013-04-15 15:05:00,
2013-04-15 11:10:00,49.6,38.7,30.30,East,87,2.0,9.0,66,0.00,,,0.00,meteohub,2013-04-15 15:10:00,
2013-04-15 11:15:00,50.0,39.0,30.30,ENE,63,4.0,9.0,66,0.00,,,0.00,meteohub,2013-04-15 15:15:00,
2013-04-15 11:20:00,50.7,39.4,30.30,East,92,2.0,9.0,65,0.00,,,0.00,meteohub,2013-04-15 15:20:00,
2013-04-15 11:25:00,51.1,39.4,30.30,ENE,57,8.0,9.0,64,0.00,,,0.00,meteohub,2013-04-15 15:25:00,
2013-04-15 11:30:00,51.1,39.4,30.30,ESE,122,2.0,9.0,64,0.00,,,0.00,meteohub,2013-04-15 15:30:00,
2013-04-15 11:36:00,52.2,39.9,30.30,ENE,63,7.0,8.0,63,0.00,,,0.00,meteohub,2013-04-15 15:36:00,
2013-04-15 11:41:00,52.2,39.6,30.30,SE,130,1.0,8.0,62,0.00,,,0.00,meteohub,2013-04-15 15:41:00,
2013-04-15 11:46:00,51.8,40.1,30.30,SSE,163,1.0,8.0,64,0.00,,,0.00,meteohub,2013-04-15 15:46:00,
2013-04-15 11:51:00,52.7,39.6,30.30,East,98,2.0,8.0,61,0.00,,,0.00,meteohub,2013-04-15 15:51:00,
2013-04-15 11:56:00,54.1,41.0,30.30,NE,53,4.0,6.0,61,0.00,,,0.00,meteohub,2013-04-15 15:56:00,
2013-04-15 12:01:00,53.6,39.6,30.30,SSE,156,1.0,5.0,59,0.00,,,0.00,meteohub,2013-04-15 16:01:00,
2013-04-15 12:06:00,54.9,41.2,30.30,ESE,121,2.0,6.0,60,0.00,,,0.00,meteohub,2013-04-15 16:06:00,
2013-04-15 12:11:00,55.2,41.2,30.30,NE,36,5.0,9.0,59,0.00,,,0.00,meteohub,2013-04-15 16:11:00,
2013-04-15 12:16:00,55.8,41.2,30.30,ENE,72,7.0,9.0,58,0.00,,,0.00,meteohub,2013-04-15 16:16:00,
2013-04-15 12:21:00,55.0,40.5,30.30,ENE,57,2.0,9.0,58,0.00,,,0.00,meteohub,2013-04-15 16:21:00,
2013-04-15 12:26:00,54.1,40.1,30.30,SE,126,2.0,8.0,59,0.00,,,0.00,meteohub,2013-04-15 16:26:00,
2013-04-15 12:32:00,53.8,40.3,30.30,SSE,155,4.0,8.0,60,0.00,,,0.00,meteohub,2013-04-15 16:32:00,
2013-04-15 12:37:00,55.4,41.4,30.30,ESE,110,3.0,8.0,59,0.00,,,0.00,meteohub,2013-04-15 16:37:00,
2013-04-15 12:42:00,55.6,41.0,30.30,South,171,2.0,7.0,58,0.00,,,0.00,meteohub,2013-04-15 16:42:00,
2013-04-15 12:47:00,55.4,41.4,30.30,ESE,108,3.0,7.0,59,0.00,,,0.00,meteohub,2013-04-15 16:47:00,
2013-04-15 12:52:00,55.0,41.4,30.30,East,87,1.0,7.0,60,0.00,,,0.00,meteohub,2013-04-15 16:52:00,
2013-04-15 12:57:00,54.9,40.8,30.30,SE,130,2.0,6.0,59,0.00,,,0.00,meteohub,2013-04-15 16:57:00,
2013-04-15 13:02:00,54.9,41.2,30.29,ESE,120,4.0,8.0,60,0.00,,,0.00,meteohub,2013-04-15 17:02:00,
2013-04-15 13:07:00,55.2,41.2,30.29,ENE,73,2.0,8.0,59,0.00,,,0.00,meteohub,2013-04-15 17:07:00,
2013-04-15 13:12:00,56.8,42.3,30.28,South,171,1.0,8.0,58,0.00,,,0.00,meteohub,2013-04-15 17:12:00,
2013-04-15 13:17:00,57.0,41.9,30.28,SE,141,3.0,8.0,57,0.00,,,0.00,meteohub,2013-04-15 17:17:00,
2013-04-15 13:21:00,57.0,41.5,30.28,NE,46,3.0,8.0,56,0.00,,,0.00,meteohub,2013-04-15 17:21:00,
2013-04-15 13:22:00,57.6,42.4,30.28,NE,45,2.0,8.0,57,0.00,,,0.00,meteohub,2013-04-15 17:22:00,
2013-04-15 13:25:00,57.7,41.2,30.28,SSE,167,3.0,7.0,54,0.00,,,0.00,meteohub,2013-04-15 17:25:00,
2013-04-15 13:30:00,57.4,40.5,30.28,SE,136,6.0,7.0,53,0.00,,,0.00,meteohub,2013-04-15 17:30:00,
2013-04-15 13:35:00,57.9,41.9,30.28,ESE,121,2.0,7.0,55,0.00,,,0.00,meteohub,2013-04-15 17:35:00,
2013-04-15 13:40:00,58.6,42.4,30.28,SSE,167,3.0,7.0,55,0.00,,,0.00,meteohub,2013-04-15 17:40:00,
2013-04-15 13:45:00,58.8,42.6,30.28,ENE,63,4.0,7.0,55,0.00,,,0.00,meteohub,2013-04-15 17:45:00,
2013-04-15 13:50:00,59.2,42.6,30.28,South,181,7.0,7.0,54,0.00,,,0.00,meteohub,2013-04-15 17:50:00,
2013-04-15 13:55:00,59.4,43.2,30.28,South,184,4.0,8.0,55,0.00,,,0.00,meteohub,2013-04-15 17:55:00,
2013-04-15 14:00:00,59.2,42.6,30.28,East,100,3.0,8.0,54,0.00,,,0.00,meteohub,2013-04-15 18:00:00,
2013-04-15 14:05:00,58.8,42.3,30.28,SSE,157,5.0,8.0,54,0.00,,,0.00,meteohub,2013-04-15 18:05:00,
2013-04-15 14:10:00,58.6,42.4,30.28,SE,146,3.0,8.0,55,0.00,,,0.00,meteohub,2013-04-15 18:10:00,
2013-04-15 14:16:00,58.6,42.4,30.28,SE,129,5.0,8.0,55,0.00,,,0.00,meteohub,2013-04-15 18:16:00,
2013-04-15 14:22:00,59.5,42.8,30.28,East,87,2.0,8.0,54,0.00,,,0.00,meteohub,2013-04-15 18:22:00,
2013-04-15 14:27:00,60.4,43.2,30.28,East,91,5.0,8.0,53,0.00,,,0.00,meteohub,2013-04-15 18:27:00,
2013-04-15 14:29:00,59.9,43.2,30.28,SSE,155,4.0,8.0,54,0.00,,,0.00,meteohub,2013-04-15 18:29:00,
2013-04-15 14:31:00,59.9,43.7,30.28,East,99,3.0,7.0,55,0.00,,,0.00,meteohub,2013-04-15 18:31:00,
2013-04-15 14:36:00,59.7,42.6,30.28,SSW,193,5.0,6.0,53,0.00,,,0.00,meteohub,2013-04-15 18:36:00,
2013-04-15 14:41:00,60.1,43.3,30.28,ESE,107,4.0,6.0,54,0.00,,,0.00,meteohub,2013-04-15 18:41:00,
2013-04-15 14:46:00,59.7,42.6,30.28,SSE,149,2.0,7.0,53,0.00,,,0.00,meteohub,2013-04-15 18:46:00,
2013-04-15 14:51:00,59.2,43.0,30.28,NE,50,4.0,9.0,55,0.00,,,0.00,meteohub,2013-04-15 18:51:00,
2013-04-15 14:56:00,58.8,43.2,30.29,SSE,151,2.0,9.0,56,0.00,,,0.00,meteohub,2013-04-15 18:56:00,
2013-04-15 15:01:00,58.6,43.0,30.28,East,95,2.0,9.0,56,0.00,,,0.00,meteohub,2013-04-15 19:01:00,
2013-04-15 15:06:00,58.8,43.7,30.28,SSE,156,5.0,6.0,57,0.00,,,0.00,meteohub,2013-04-15 19:06:00,
2013-04-15 15:11:00,58.6,43.9,30.28,SE,132,3.0,6.0,58,0.00,,,0.00,meteohub,2013-04-15 19:11:00,
2013-04-15 15:16:00,58.5,43.7,30.28,South,171,4.0,6.0,58,0.00,,,0.00,meteohub,2013-04-15 19:16:00,
2013-04-15 15:21:00,58.1,43.3,30.28,SSE,160,4.0,6.0,58,0.00,,,0.00,meteohub,2013-04-15 19:21:00,
2013-04-15 15:26:00,58.3,43.5,30.28,SSE,161,4.0,6.0,58,0.00,,,0.00,meteohub,2013-04-15 19:26:00,
2013-04-15 15:31:00,58.1,43.9,30.28,South,183,1.0,6.0,59,0.00,,,0.00,meteohub,2013-04-15 19:31:00,
2013-04-15 15:36:00,57.9,43.7,30.28,SE,129,1.0,5.0,59,0.00,,,0.00,meteohub,2013-04-15 19:36:00,
2013-04-15 15:41:00,57.7,43.5,30.29,SSE,149,3.0,6.0,59,0.00,,,0.00,meteohub,2013-04-15 19:41:00,
2013-04-15 15:47:00,57.6,43.3,30.28,SSE,148,2.0,6.0,59,0.00,,,0.00,meteohub,2013-04-15 19:47:00,
2013-04-15 15:52:00,57.4,43.2,30.28,SSE,164,4.0,6.0,59,0.00,,,0.00,meteohub,2013-04-15 19:52:00,
2013-04-15 15:57:00,57.0,43.3,30.28,SE,133,2.0,9.0,60,0.00,,,0.00,meteohub,2013-04-15 19:57:00,
2013-04-15 15:58:00,57.0,43.7,30.28,SE,129,1.0,9.0,61,0.00,,,0.00,meteohub,2013-04-15 19:58:00,
2013-04-15 16:02:00,57.0,43.7,30.28,SE,145,3.0,9.0,61,0.00,,,0.00,meteohub,2013-04-15 20:02:00,
2013-04-15 16:03:00,57.0,43.7,30.27,SSE,150,2.0,9.0,61,0.00,,,0.00,meteohub,2013-04-15 20:03:00,
2013-04-15 16:08:00,57.2,43.9,30.27,SSE,152,4.0,9.0,61,0.00,,,0.00,meteohub,2013-04-15 20:08:00,
2013-04-15 16:13:00,57.0,44.1,30.28,SE,137,3.0,8.0,62,0.00,,,0.00,meteohub,2013-04-15 20:13:00,
2013-04-15 16:18:00,57.2,44.2,30.27,SE,140,5.0,8.0,62,0.00,,,0.00,meteohub,2013-04-15 20:18:00,
2013-04-15 16:23:00,56.8,43.5,30.27,ESE,121,2.0,9.0,61,0.00,,,0.00,meteohub,2013-04-15 20:23:00,
2013-04-15 16:28:00,56.7,44.2,30.27,SSE,159,4.0,9.0,63,0.00,,,0.00,meteohub,2013-04-15 20:28:00,
2013-04-15 16:33:00,56.7,44.2,30.27,South,174,2.0,9.0,63,0.00,,,0.00,meteohub,2013-04-15 20:33:00,
2013-04-15 16:38:00,56.7,44.2,30.27,South,171,4.0,8.0,63,0.00,,,0.00,meteohub,2013-04-15 20:38:00,
2013-04-15 16:43:00,56.8,44.8,30.27,SE,135,2.0,7.0,64,0.00,,,0.00,meteohub,2013-04-15 20:43:00,
2013-04-15 16:48:00,56.8,44.8,30.27,South,173,3.0,7.0,64,0.00,,,0.00,meteohub,2013-04-15 20:48:00,
2013-04-15 16:53:00,56.8,44.8,30.27,South,180,3.0,7.0,64,0.00,,,0.00,meteohub,2013-04-15 20:53:00,
2013-04-15 16:58:00,56.7,44.6,30.28,SE,138,1.0,6.0,64,0.00,,,0.00,meteohub,2013-04-15 20:58:00,
2013-04-15 17:03:00,56.7,45.0,30.28,SSE,148,5.0,6.0,65,0.00,,,0.00,meteohub,2013-04-15 21:03:00,
2013-04-15 17:08:00,56.5,44.4,30.27,SE,133,2.0,7.0,64,0.00,,,0.00,meteohub,2013-04-15 21:08:00,
2013-04-15 17:13:00,56.5,44.1,30.28,SSE,160,3.0,7.0,63,0.00,,,0.00,meteohub,2013-04-15 21:13:00,
2013-04-15 17:18:00,56.1,44.1,30.28,SE,146,3.0,7.0,64,0.00,,,0.00,meteohub,2013-04-15 21:18:00,
2013-04-15 17:23:00,56.1,44.6,30.28,SSE,151,2.0,7.0,65,0.00,,,0.00,meteohub,2013-04-15 21:23:00,
2013-04-15 17:28:00,56.1,44.6,30.28,SE,136,2.0,7.0,65,0.00,,,0.00,meteohub,2013-04-15 21:28:00,
2013-04-15 17:33:00,56.1,44.6,30.28,SSE,150,3.0,7.0,65,0.00,,,0.00,meteohub,2013-04-15 21:33:00,
2013-04-15 17:38:00,55.9,44.4,30.28,SSE,150,4.0,6.0,65,0.00,,,0.00,meteohub,2013-04-15 21:38:00,
2013-04-15 17:43:00,55.9,44.8,30.28,SE,125,3.0,6.0,66,0.00,,,0.00,meteohub,2013-04-15 21:43:00,
2013-04-15 17:48:00,55.8,44.6,30.28,SE,142,2.0,7.0,66,0.00,,,0.00,meteohub,2013-04-15 21:48:00,
2013-04-15 17:53:00,55.8,44.6,30.29,SE,138,3.0,7.0,66,0.00,,,0.00,meteohub,2013-04-15 21:53:00,
2013-04-15 17:58:00,55.6,44.4,30.28,ESE,123,2.0,7.0,66,0.00,,,0.00,meteohub,2013-04-15 21:58:00,
2013-04-15 18:03:00,55.4,43.9,30.29,SSE,150,1.0,5.0,65,0.00,,,0.00,meteohub,2013-04-15 22:03:00,
2013-04-15 18:08:00,55.2,44.1,30.29,SSE,166,3.0,6.0,66,0.00,,,0.00,meteohub,2013-04-15 22:08:00,
2013-04-15 18:13:00,55.0,43.5,30.29,SE,138,1.0,6.0,65,0.00,,,0.00,meteohub,2013-04-15 22:13:00,
2013-04-15 18:18:00,55.0,43.9,30.29,SE,139,3.0,7.0,66,0.00,,,0.00,meteohub,2013-04-15 22:18:00,
2013-04-15 18:23:00,55.0,43.9,30.30,ESE,122,3.0,7.0,66,0.00,,,0.00,meteohub,2013-04-15 22:23:00,
2013-04-15 18:28:00,54.9,43.7,30.30,East,99,2.0,7.0,66,0.00,,,0.00,meteohub,2013-04-15 22:28:00,
2013-04-15 18:33:00,54.9,43.7,30.30,East,96,5.0,5.0,66,0.00,,,0.00,meteohub,2013-04-15 22:33:00,
2013-04-15 18:38:00,54.7,43.5,30.30,SSE,155,3.0,5.0,66,0.00,,,0.00,meteohub,2013-04-15 22:38:00,
2013-04-15 18:43:00,54.3,43.5,30.30,SE,138,5.0,6.0,67,0.00,,,0.00,meteohub,2013-04-15 22:43:00,
2013-04-15 18:48:00,54.1,43.3,30.30,SSE,147,2.0,7.0,67,0.00,,,0.00,meteohub,2013-04-15 22:48:00,
2013-04-15 18:53:00,54.1,43.9,30.30,SSE,157,2.0,7.0,68,0.00,,,0.00,meteohub,2013-04-15 22:53:00,
2013-04-15 18:58:00,54.1,44.2,30.30,East,100,2.0,7.0,69,0.00,,,0.00,meteohub,2013-04-15 22:58:00,
2013-04-15 19:03:00,54.0,44.1,30.30,SSE,163,3.0,4.0,69,0.00,,,0.00,meteohub,2013-04-15 23:03:00,
2013-04-15 19:08:00,54.0,44.4,30.30,SE,131,2.0,3.0,70,0.00,,,0.00,meteohub,2013-04-15 23:08:00,
2013-04-15 19:13:00,53.8,44.2,30.30,SSE,161,2.0,4.0,70,0.00,,,0.00,meteohub,2013-04-15 23:13:00,
2013-04-15 19:18:00,53.6,44.4,30.30,SSE,153,3.0,4.0,71,0.00,,,0.00,meteohub,2013-04-15 23:18:00,
2013-04-15 19:23:00,53.4,44.6,30.30,SSE,148,1.0,5.0,72,0.00,,,0.00,meteohub,2013-04-15 23:23:00,
2013-04-15 19:28:00,53.2,44.8,30.30,SSE,154,2.0,5.0,73,0.00,,,0.00,meteohub,2013-04-15 23:28:00,
2013-04-15 19:33:00,53.1,45.0,30.31,SE,127,1.0,5.0,74,0.00,,,0.00,meteohub,2013-04-15 23:33:00,
2013-04-15 19:39:00,52.9,44.4,30.31,South,172,4.0,4.0,73,0.00,,,0.00,meteohub,2013-04-15 23:39:00,
2013-04-15 19:44:00,52.7,44.2,30.31,South,179,3.0,5.0,73,0.00,,,0.00,meteohub,2013-04-15 23:44:00,
2013-04-15 19:49:00,52.5,44.1,30.31,South,173,1.0,7.0,73,0.00,,,0.00,meteohub,2013-04-15 23:49:00,
2013-04-15 19:54:00,52.5,44.1,30.31,SSE,155,2.0,7.0,73,0.00,,,0.00,meteohub,2013-04-15 23:54:00,
2013-04-15 19:59:00,52.5,44.1,30.31,SE,142,1.0,7.0,73,0.00,,,0.00,meteohub,2013-04-15 23:59:00,
2013-04-15 20:04:00,52.5,44.1,30.31,SSE,163,3.0,5.0,73,0.00,,,0.00,meteohub,2013-04-16 00:04:00,
2013-04-15 20:09:00,52.3,43.9,30.31,SSE,165,2.0,4.0,73,0.00,,,0.00,meteohub,2013-04-16 00:09:00,
2013-04-15 20:14:00,52.3,43.9,30.32,SE,126,3.0,5.0,73,0.00,,,0.00,meteohub,2013-04-16 00:14:00,
2013-04-15 20:19:00,52.3,43.9,30.32,ESE,123,1.0,5.0,73,0.00,,,0.00,meteohub,2013-04-16 00:19:00,
2013-04-15 20:24:00,52.3,43.9,30.31,SE,128,2.0,5.0,73,0.00,,,0.00,meteohub,2013-04-16 00:24:00,
2013-04-15 20:29:00,52.2,43.7,30.31,ESE,113,0.0,5.0,73,0.00,,,0.00,meteohub,2013-04-16 00:29:00,
2013-04-15 20:34:00,52.2,43.7,30.31,ESE,109,1.0,4.0,73,0.00,,,0.00,meteohub,2013-04-16 00:34:00,
2013-04-15 20:39:00,52.2,44.1,30.31,SE,138,5.0,5.0,74,0.00,,,0.00,meteohub,2013-04-16 00:39:00,
2013-04-15 20:44:00,52.0,43.5,30.31,East,81,2.0,6.0,73,0.00,,,0.00,meteohub,2013-04-16 00:44:00,
2013-04-15 20:49:00,52.0,43.9,30.31,ESE,109,1.0,6.0,74,0.00,,,0.00,meteohub,2013-04-16 00:49:00,
2013-04-15 20:54:00,52.0,43.5,30.31,SE,125,2.0,6.0,73,0.00,,,0.00,meteohub,2013-04-16 00:54:00,
2013-04-15 20:59:00,52.0,43.9,30.32,SE,146,1.0,6.0,74,0.00,,,0.00,meteohub,2013-04-16 00:59:00,
2013-04-15 21:04:00,52.0,43.9,30.32,SE,127,1.0,6.0,74,0.00,,,0.00,meteohub,2013-04-16 01:04:00,
2013-04-15 21:09:00,52.0,43.9,30.32,East,92,1.0,6.0,74,0.00,,,0.00,meteohub,2013-04-16 01:09:00,
2013-04-15 21:14:00,51.8,43.7,30.32,ESE,118,1.0,4.0,74,0.00,,,0.00,meteohub,2013-04-16 01:14:00,
2013-04-15 21:19:00,51.8,44.1,30.32,ESE,122,2.0,3.0,75,0.00,,,0.00,meteohub,2013-04-16 01:19:00,
2013-04-15 21:24:00,51.6,43.9,30.32,East,82,2.0,3.0,75,0.00,,,0.00,meteohub,2013-04-16 01:24:00,
2013-04-15 21:29:00,51.6,43.5,30.32,East,80,1.0,4.0,74,0.00,,,0.00,meteohub,2013-04-16 01:29:00,
2013-04-15 21:34:00,51.6,43.5,30.32,SSW,194,4.0,4.0,74,0.00,,,0.00,meteohub,2013-04-16 01:34:00,
2013-04-15 21:39:00,51.6,43.5,30.32,NE,50,2.0,5.0,74,0.00,,,0.00,meteohub,2013-04-16 01:39:00,
2013-04-15 21:44:00,51.6,43.3,30.33,SE,130,2.0,6.0,73,0.00,,,0.00,meteohub,2013-04-16 01:44:00,
2013-04-15 21:49:00,51.4,43.5,30.33,SSE,148,2.0,6.0,74,0.00,,,0.00,meteohub,2013-04-16 01:49:00,
2013-04-15 21:54:00,51.4,43.5,30.33,SSE,151,0.0,6.0,74,0.00,,,0.00,meteohub,2013-04-16 01:54:00,
2013-04-15 21:59:00,51.4,43.7,30.34,SE,136,2.0,6.0,75,0.00,,,0.00,meteohub,2013-04-16 01:59:00,
2013-04-15 22:04:00,51.4,43.7,30.34,SE,142,1.0,4.0,75,0.00,,,0.00,meteohub,2013-04-16 02:04:00,
2013-04-15 22:09:00,51.3,43.5,30.34,ESE,108,3.0,4.0,75,0.00,,,0.00,meteohub,2013-04-16 02:09:00,
2013-04-15 22:14:00,51.3,43.9,30.33,East,94,2.0,7.0,76,0.00,,,0.00,meteohub,2013-04-16 02:14:00,
2013-04-15 22:19:00,51.3,43.9,30.34,SE,142,2.0,7.0,76,0.00,,,0.00,meteohub,2013-04-16 02:19:00,
2013-04-15 22:24:00,51.3,43.9,30.33,ESE,119,1.0,7.0,76,0.00,,,0.00,meteohub,2013-04-16 02:24:00,
2013-04-15 22:29:00,51.1,43.7,30.34,ESE,109,2.0,6.0,76,0.00,,,0.00,meteohub,2013-04-16 02:29:00,
2013-04-15 22:34:00,51.1,43.7,30.33,ESE,117,1.0,6.0,76,0.00,,,0.00,meteohub,2013-04-16 02:34:00,
2013-04-15 22:39:00,51.1,43.7,30.33,SE,126,2.0,6.0,76,0.00,,,0.00,meteohub,2013-04-16 02:39:00,
2013-04-15 22:44:00,51.1,43.7,30.34,SE,132,1.0,4.0,76,0.00,,,0.00,meteohub,2013-04-16 02:44:00,
2013-04-15 22:49:00,51.1,44.1,30.34,SE,132,0.0,6.0,77,0.00,,,0.00,meteohub,2013-04-16 02:49:00,
2013-04-15 22:54:00,50.9,43.9,30.34,SE,131,1.0,6.0,77,0.00,,,0.00,meteohub,2013-04-16 02:54:00,
2013-04-15 22:59:00,50.9,43.9,30.33,SE,126,1.0,6.0,77,0.00,,,0.00,meteohub,2013-04-16 02:59:00,
2013-04-15 23:04:00,50.7,43.7,30.33,SE,132,1.0,6.0,77,0.00,,,0.00,meteohub,2013-04-16 03:04:00,
2013-04-15 23:09:00,50.7,43.7,30.33,SE,132,1.0,6.0,77,0.00,,,0.00,meteohub,2013-04-16 03:09:00,
2013-04-15 23:14:00,50.7,44.1,30.33,ENE,76,1.0,6.0,78,0.00,,,0.00,meteohub,2013-04-16 03:14:00,
2013-04-15 23:20:00,50.7,44.1,30.33,SSE,148,3.0,4.0,78,0.00,,,0.00,meteohub,2013-04-16 03:20:00,
2013-04-15 23:25:00,50.5,43.9,30.33,SSE,163,0.0,3.0,78,0.00,,,0.00,meteohub,2013-04-16 03:25:00,
2013-04-15 23:30:00,50.5,43.9,30.33,NE,56,2.0,5.0,78,0.00,,,0.00,meteohub,2013-04-16 03:30:00,
2013-04-15 23:35:00,50.5,44.2,30.33,ESE,117,1.0,5.0,79,0.00,,,0.00,meteohub,2013-04-16 03:35:00,
2013-04-15 23:40:00,50.5,44.2,30.33,East,84,1.0,5.0,79,0.00,,,0.00,meteohub,2013-04-16 03:40:00,
2013-04-15 23:45:00,50.4,43.7,30.34,SE,127,0.0,3.0,78,0.00,,,0.00,meteohub,2013-04-16 03:45:00,
2013-04-15 23:50:00,50.5,44.2,30.34,ENE,71,1.0,5.0,79,0.00,,,0.00,meteohub,2013-04-16 03:50:00,
2013-04-15 23:55:00,50.4,44.1,30.34,ENE,61,1.0,5.0,79,0.00,,,0.00,meteohub,2013-04-16 03:55:00,